Date String (YYYY-MM-DD hh:mm:ss) UTC,Instrument flags,absolute air pressure of the measurement (hPa),sample flow rate (lpm),inlet stack bypass flow (lpm),air temperature of the measurement (°C),ambient temperature measured by the external sensor (°C),aerosol sample conditioner tube jacket temperature (°C),OPC LED temperature (°C),internal box temperature (°C),relative humidity of the measurement (%),span deviation,mass concentration of particles derived from Lorenz-Mie calculation of OPC scattering (μg/m³),mass concentration of particles derived from Lorenz-Mie calculation of OPC scattering (μg/m³),mass concentration of particles derived from Lorenz-Mie calculation of OPC scattering (μg/m³)
DateTimeUTC,F1_M11,P_M11,Q1_M11,Q2_M11,T1_M11,T2_M11,T3_M11,T4_M11,T5_M11,U1_M11,ZSPAN_M11,X0_M11,X2_M11,X1_M11
2023-08-07 09:00:00,SystemResetWarning,0834.8,5.00,000.00,029.7,028.4,000.0,038.4,031.3,27.7,0000.6,0008.64,0005.08,0004.66
2023-08-07 09:01:00,SystemResetWarning,0834.7,5.00,000.00,029.7,028.4,000.0,038.4,031.3,27.5,0000.7,0008.64,0005.09,0004.66
2023-08-07 09:02:00,SystemResetWarning,0834.8,5.01,000.00,029.7,028.4,000.0,038.4,031.3,27.5,0001.3,0008.61,0005.08,0004.66
2023-08-07 09:03:00,SystemResetWarning,0834.9,5.00,000.00,029.8,028.5,000.0,038.4,031.3,27.5,0000.8,0008.51,0005.08,0004.65
2023-08-07 09:04:00,SystemResetWarning,0835.0,5.00,000.00,029.8,028.5,000.0,038.4,031.3,27.4,0000.1,0008.23,0005.08,0004.66
2023-08-07 09:05:00,SystemResetWarning,0834.8,5.00,000.00,029.8,028.5,000.0,038.4,031.3,27.5,0000.0,0008.15,0005.07,0004.66
2023-08-07 09:06:00,SystemResetWarning,0834.8,5.00,000.00,029.8,028.5,000.0,038.4,031.4,27.7,0000.0,0008.16,0005.10,0004.68
2023-08-07 09:07:00,SystemResetWarning,0834.7,5.00,000.00,029.8,028.5,000.0,038.4,031.4,27.8,0000.0,0008.18,0005.15,0004.74
2023-08-07 09:08:00,SystemResetWarning,0834.7,4.99,000.00,029.8,028.5,000.0,038.4,031.4,27.8,-000.1,0008.33,0005.17,0004.76
2023-08-07 09:09:00,SystemResetWarning,0834.7,5.00,000.00,029.8,028.5,000.0,038.4,031.4,27.9,-000.2,0008.38,0005.15,0004.77
2023-08-07 09:10:00,SystemResetWarning,0834.7,5.00,000.00,029.8,028.5,000.0,038.4,031.4,27.9,0000.0,0008.32,0005.10,0004.73
2023-08-07 09:11:00,SystemResetWarning,0834.7,5.00,000.00,029.8,028.5,000.0,038.5,031.4,27.9,0000.0,0007.96,0005.06,0004.71
2023-08-07 09:12:00,SystemResetWarning,0835.0,4.99,000.00,029.8,028.5,000.0,038.5,031.4,28.1,0000.0,0008.04,0005.07,0004.69
2023-08-07 09:13:00,SystemResetWarning,0835.4,5.00,000.00,029.9,028.5,000.0,038.5,031.4,28.2,0000.0,0008.22,0005.08,0004.69
2023-08-07 09:14:00,SystemResetWarning,0834.8,5.00,000.00,029.9,028.5,000.0,038.5,031.4,28.2,0000.0,0008.24,0005.06,0004.67
2023-08-07 09:15:00,SystemResetWarning,0835.3,5.00,000.00,029.9,028.5,000.0,038.5,031.4,28.2,0000.0,0008.06,0005.01,0004.62
2023-08-07 09:16:00,SystemResetWarning,0835.2,5.00,000.00,029.9,028.6,000.0,038.5,031.4,28.2,0000.0,0008.10,0004.96,0004.56
2023-08-07 09:17:00,SystemResetWarning,0834.9,5.00,000.00,029.9,028.6,000.0,038.5,031.4,28.2,0000.0,0008.06,0004.90,0004.50
2023-08-07 09:18:00,SystemResetWarning,0835.2,5.00,000.00,029.9,028.6,000.0,038.5,031.4,28.1,0000.0,0008.09,0004.86,0004.44
2023-08-07 09:19:00,SystemResetWarning,0835.4,5.00,000.00,029.9,028.6,000.0,038.5,031.4,27.9,0000.0,0007.84,0004.77,0004.36
2023-08-07 09:20:00,SystemResetWarning,0835.3,5.00,000.00,029.9,028.6,000.0,038.5,031.4,27.8,0000.0,0007.61,0004.72,0004.33
2023-08-07 09:21:00,SystemResetWarning,0835.3,5.00,000.00,029.9,028.6,000.0,038.5,031.5,27.9,0000.0,0007.84,0004.74,0004.36
2023-08-07 09:22:00,SystemResetWarning,0835.1,5.00,000.00,029.9,028.6,000.0,038.6,031.5,27.8,0000.0,0008.39,0004.80,0004.40
2023-08-07 09:23:00,SystemResetWarning,0834.9,5.00,000.00,029.9,028.6,000.0,038.6,031.5,27.8,0000.0,0008.42,0004.76,0004.37
2023-08-07 09:24:00,SystemResetWarning,0834.9,5.00,000.00,029.9,028.6,000.0,038.6,031.5,27.8,0000.0,0008.34,0004.72,0004.30
2023-08-07 09:25:00,SystemResetWarning,0834.9,5.01,000.00,029.9,028.6,000.0,038.6,031.5,27.7,0000.0,0008.30,0004.67,0004.23
2023-08-07 09:26:00,SystemResetWarning,0834.9,5.00,000.00,030.0,028.6,000.0,038.6,031.5,27.7,0000.0,0008.36,0004.61,0004.18
2023-08-07 09:27:00,SystemResetWarning,0835.2,5.00,000.00,030.0,028.6,000.0,038.6,031.5,27.7,0000.0,0008.29,0004.56,0004.13
2023-08-07 09:28:00,SystemResetWarning,0835.3,4.99,000.00,030.0,028.6,000.0,038.6,031.5,27.6,0000.0,0008.38,0004.56,0004.09
2023-08-07 09:29:00,SystemResetWarning,0835.3,4.99,000.00,030.0,028.6,000.0,038.6,031.5,27.6,0000.0,0008.33,0004.52,0004.05
2023-08-07 09:30:00,SystemResetWarning,0835.0,5.00,000.00,030.0,028.6,000.0,038.6,031.5,27.6,0000.0,0008.36,0004.51,0004.04
2023-08-07 09:31:00,SystemResetWarning,0835.1,5.00,000.00,030.0,028.6,000.0,038.6,031.5,27.6,0000.0,0008.44,0004.54,0004.06
2023-08-07 09:32:00,SystemResetWarning,0834.9,5.00,000.00,030.0,028.6,000.0,038.6,031.5,27.6,0000.0,0008.78,0004.58,0004.07
2023-08-07 09:33:00,SystemResetWarning,0834.8,5.00,000.00,030.0,028.7,000.0,038.6,031.5,27.6,0000.0,0008.40,0004.55,0004.06
2023-08-07 09:34:00,SystemResetWarning,0834.9,5.00,000.00,030.0,028.7,000.0,038.6,031.5,27.6,0000.0,0008.26,0004.57,0004.08
2023-08-07 09:35:00,SystemResetWarning,0834.7,5.01,000.00,030.0,028.7,000.0,038.7,031.5,27.5,0000.0,0008.27,0004.60,0004.12
2023-08-07 09:36:00,SystemResetWarning,0834.7,5.00,000.00,030.0,028.7,000.0,038.7,031.5,27.5,0000.0,0008.20,0004.60,0004.18
2023-08-07 09:37:00,SystemResetWarning,0835.0,5.00,000.00,030.0,028.7,000.0,038.7,031.5,27.5,0000.0,0008.19,0004.66,0004.24
2023-08-07 09:38:00,SystemResetWarning,0835.2,5.00,000.00,030.0,028.7,000.0,038.7,031.5,27.5,0000.0,0008.20,0004.74,0004.31
2023-08-07 09:39:00,SystemResetWarning,0834.7,5.00,000.00,030.0,028.7,000.0,038.7,031.5,27.4,0000.0,0008.26,0004.82,0004.38
2023-08-07 09:40:00,SystemResetWarning,0834.7,5.00,000.00,030.0,028.6,000.0,038.7,031.5,27.4,0000.0,0008.23,0004.87,0004.45
2023-08-07 09:41:00,SystemResetWarning,0835.1,5.00,000.00,030.0,028.6,000.0,038.7,031.5,27.4,0000.0,0008.32,0004.92,0004.47
2023-08-07 09:42:00,SystemResetWarning,0834.6,5.00,000.00,030.0,028.6,000.0,038.7,031.5,27.4,-000.2,0008.47,0004.95,0004.48
2023-08-07 09:43:00,SystemResetWarning,0834.5,5.00,000.00,030.0,028.6,000.0,038.7,031.5,27.4,0000.0,0008.28,0004.96,0004.47
2023-08-07 09:44:00,SystemResetWarning,0834.5,5.00,000.00,030.0,028.6,000.0,038.7,031.5,27.4,0000.0,0008.05,0004.96,0004.47
2023-08-07 09:45:00,SystemResetWarning,0834.5,5.00,000.00,030.0,028.6,000.0,038.7,031.5,27.4,0000.0,0008.00,0004.95,0004.46
2023-08-07 09:46:00,SystemResetWarning,0834.5,5.00,000.00,030.0,028.6,000.0,038.7,031.5,27.4,0000.0,0007.95,0004.92,0004.44
2023-08-07 09:47:00,SystemResetWarning,0834.5,5.00,000.00,030.0,028.6,000.0,038.7,031.5,27.4,0000.0,0008.13,0004.93,0004.41
2023-08-07 09:48:00,SystemResetWarning,0834.7,5.00,000.00,030.0,028.6,000.0,038.7,031.5,27.4,0000.0,0008.20,0004.93,0004.39
2023-08-07 09:49:00,SystemResetWarning,0835.1,5.00,000.00,030.0,028.6,000.0,038.7,031.5,27.3,0000.0,0008.10,0004.87,0004.35
2023-08-07 09:50:00,SystemResetWarning,0835.1,5.00,000.00,030.0,028.6,000.0,038.7,031.5,27.5,0000.0,0008.02,0004.82,0004.32
2023-08-07 09:51:00,SystemResetWarning,0835.1,5.00,000.00,030.0,028.6,000.0,038.7,031.5,27.5,0000.2,0007.91,0004.79,0004.29
2023-08-07 09:52:00,SystemResetWarning,0835.1,5.00,000.00,030.0,028.5,000.0,038.7,031.5,27.5,0000.1,0008.26,0004.79,0004.29
2023-08-07 09:53:00,SystemResetWarning,0834.9,5.00,000.00,030.0,028.5,000.0,038.7,031.5,27.6,0000.0,0008.20,0004.79,0004.31
2023-08-07 09:54:00,SystemResetWarning,0834.9,5.00,000.00,030.0,028.5,000.0,038.7,031.5,27.8,0000.0,0008.07,0004.79,0004.34
2023-08-07 09:55:00,SystemResetWarning,0834.8,4.99,000.00,030.0,028.5,000.0,038.7,031.5,28.1,0000.0,0008.15,0004.84,0004.38
2023-08-07 09:56:00,SystemResetWarning,0834.6,5.00,000.00,030.0,028.5,000.0,038.7,031.5,28.2,0000.0,0008.24,0004.89,0004.41
2023-08-07 09:57:00,SystemResetWarning,0834.8,5.00,000.00,030.0,028.5,000.0,038.7,031.5,28.3,0000.0,0008.32,0004.94,0004.43
2023-08-07 09:58:00,SystemResetWarning,0835.1,5.00,000.00,030.0,028.5,000.0,038.7,031.5,28.4,0000.0,0008.13,0004.92,0004.44
2023-08-07 09:59:00,SystemResetWarning,0835.0,5.00,000.00,030.0,028.5,000.0,038.7,031.5,28.5,0000.0,0008.03,0004.93,0004.46
